QPF
0.02 0.02 0.02 0.02 0.03 0.02 0.02 0.02 0.04 0.06 0.06 0.06 0.07 0.09 0.11 0.11 0.13 0.07 0.02 0.02 0.02 0.02 0.02 0.01 0.01 0.00 0.00 0.01 0.01 0.00 0.00 0.00 0.00 0.00 0.00 0.00 0.01 0.02 0.02 0.00 0.01 0.01 0.01
0.03 0.02 0.03 0.02 0.03 0.02 0.02 0.02 0.03 0.04 0.05 0.06 0.10 0.07 0.06 0.06 0.06 0.07 0.03 0.02 0.02 0.02 0.01 0.01 0.01 0.01 0.01 0.01 0.00 0.00 0.01 0.00 0.00 0.00 0.00 0.00 0.00 0.01 0.00 0.00 0.00 0.01 0.01
0.06 0.04 0.05 0.05 0.05 0.03 0.03 0.03 0.04 0.03 0.05 0.07 0.08 0.07 0.06 0.06 0.05 0.05 0.04 0.03 0.02 0.02 0.03 0.03 0.03 0.03 0.03 0.02 0.01 0.01 0.01 0.01 0.01 0.01 0.01 0.01 0.00 0.00 0.00 0.00 0.00 0.00 0.00
0.09 0.03 0.04 0.03 0.03 0.03 0.03 0.04 0.05 0.05 0.05 0.07 0.07 0.07 0.06 0.06 0.05 0.04 0.03 0.03 0.02 0.01 0.03 0.04 0.03 0.03 0.04 0.04 0.04 0.03 0.03 0.02 0.01 0.01 0.01 0.01 0.01 0.00 0.00 0.00 0.00 0.00 0.00
0.05 0.02 0.02 0.02 0.01 0.02 0.03 0.04 0.03 0.04 0.04 0.06 0.04 0.05 0.06 0.07 0.05 0.03 0.03 0.03 0.03 0.03 0.02 0.03 0.04 0.03 0.03 0.04 0.03 0.04 0.04 0.03 0.03 0.02 0.02 0.02 0.02 0.01 0.01 0.00 0.00 0.00 0.00
0.04 0.02 0.01 0.02 0.01 0.01 0.02 0.03 0.03 0.03 0.03 0.05 0.06 0.08 0.07 0.06 0.05 0.03 0.04 0.04 0.04 0.04 0.04 0.03 0.02 0.02 0.04 0.04 0.04 0.05 0.05 0.04 0.04 0.03 0.02 0.02 0.03 0.02 0.02 0.02 0.01 0.01 0.01
0.04 0.04 0.03 0.02 0.01 0.01 0.01 0.02 0.02 0.03 0.05 0.05 0.07 0.09 0.08 0.06 0.05 0.04 0.05 0.06 0.06 0.04 0.05 0.04 0.02 0.01 0.01 0.02 0.03 0.05 0.05 0.06 0.05 0.05 0.04 0.04 0.04 0.03 0.03 0.03 0.03 0.02 0.02
0.03 0.04 0.04 0.02 0.02 0.02 0.02 0.01 0.01 0.02 0.03 0.03 0.04 0.04 0.05 0.06 0.04 0.04 0.04 0.05 0.04 0.05 0.08 0.08 0.03 0.02 0.01 0.01 0.01 0.03 0.05 0.05 0.06 0.06 0.05 0.04 0.04 0.04 0.04 0.03 0.03 0.02 0.02
0.02 0.02 0.04 0.03 0.02 0.02 0.01 0.01 0.02 0.03 0.02 0.02 0.02 0.02 0.02 0.02 0.03 0.03 0.02 0.02 0.03 0.05 0.04 0.05 0.05 0.03 0.03 0.02 0.02 0.02 0.03 0.03 0.04 0.05 0.04 0.03 0.02 0.02 0.02 0.02 0.02 0.02 0.03
0.03 0.03 0.04 0.05 0.04 0.02 0.01 0.01 0.02 0.02 0.01 0.01 0.02 0.01 0.01 0.00 0.01 0.01 0.03 0.04 0.03 0.04 0.05 0.05 0.04 0.03 0.04 0.06 0.04 0.02 0.01 0.02 0.03 0.04 0.05 0.04 0.02 0.02 0.02 0.02 0.03 0.03 0.04
0.05 0.04 0.05 0.04 0.03 0.02 0.01 0.02 0.02 0.01 0.01 0.01 0.01 0.01 0.01 0.01 0.00 0.01 0.02 0.03 0.04 0.03 0.02 0.03 0.02 0.02 0.03 0.04 0.02 0.01 0.01 0.01 0.01 0.02 0.02 0.03 0.03 0.03 0.03 0.03 0.03 0.04 0.05
0.06 0.05 0.05 0.05 0.04 0.04 0.02 0.02 0.03 0.03 0.02 0.02 0.02 0.01 0.01 0.01 0.01 0.01 0.01 0.01 0.02 0.02 0.03 0.03 0.02 0.02 0.02 0.02 0.01 0.01 0.01 0.01 0.01 0.01 0.01 0.01 0.02 0.02 0.02 0.03 0.03 0.04 0.05
0.03 0.03 0.04 0.04 0.03 0.05 0.05 0.04 0.03 0.03 0.03 0.02 0.02 0.02 0.01 0.01 0.01 0.01 0.00 0.00 0.01 0.01 0.02 0.02 0.02 0.02 0.03 0.03 0.02 0.02 0.03 0.04 0.03 0.02 0.01 0.01 0.01 0.01 0.01 0.02 0.03 0.03 0.03
0.03 0.03 0.03 0.04 0.04 0.05 0.05 0.05 0.05 0.05 0.05 0.04 0.03 0.02 0.02 0.01 0.01 0.01 0.01 0.01 0.01 0.01 0.02 0.02 0.03 0.03 0.03 0.03 0.04 0.03 0.03 0.04 0.04 0.03 0.02 0.01 0.00 0.00 0.00 0.01 0.01 0.01 0.01
0.05 0.05 0.06 0.07 0.08 0.09 0.09 0.09 0.08 0.07 0.06 0.05 0.04 0.03 0.02 0.01 0.01 0.01 0.02 0.03 0.02 0.01 0.02 0.02 0.05 0.06 0.04 0.04 0.05 0.03 0.02 0.04 0.04 0.04 0.02 0.02 0.01 0.01 0.01 0.01 0.01 0.01 0.01
0.04 0.05 0.07 0.08 0.08 0.08 0.08 0.10 0.10 0.10 0.09 0.07 0.06 0.04 0.03 0.03 0.02 0.01 0.02 0.03 0.03 0.02 0.03 0.01 0.03 0.05 0.05 0.04 0.05 0.05 0.04 0.05 0.07 0.06 0.05 0.03 0.02 0.01 0.01 0.01 0.01 0.00 0.00
0.06 0.07 0.07 0.08 0.09 0.10 0.10 0.10 0.11 0.11 0.11 0.11 0.09 0.07 0.04 0.04 0.04 0.02 0.02 0.01 0.02 0.02 0.03 0.02 0.03 0.04 0.05 0.05 0.06 0.06 0.05 0.05 0.07 0.08 0.07 0.05 0.03 0.02 0.02 0.01 0.01 0.00 0.00
0.11 0.10 0.09 0.09 0.10 0.12 0.13 0.13 0.13 0.12 0.10 0.09 0.08 0.08 0.07 0.07 0.06 0.04 0.03 0.02 0.02 0.03 0.03 0.02 0.02 0.03 0.04 0.05 0.07 0.08 0.07 0.07 0.06 0.06 0.05 0.04 0.04 0.03 0.02 0.02 0.02 0.01 0.01
0.15 0.13 0.13 0.12 0.12 0.13 0.13 0.12 0.13 0.12 0.11 0.11 0.11 0.11 0.11 0.11 0.08 0.06 0.05 0.05 0.04 0.04 0.04 0.04 0.03 0.03 0.03 0.03 0.05 0.07 0.07 0.06 0.04 0.04 0.04 0.04 0.04 0.04 0.03 0.03 0.02 0.02 0.02
0.11 0.10 0.12 0.13 0.13 0.13 0.12 0.12 0.12 0.12 0.12 0.14 0.15 0.16 0.16 0.15 0.12 0.09 0.07 0.05 0.04 0.04 0.04 0.04 0.03 0.02 0.02 0.02 0.04 0.05 0.05 0.04 0.03 0.03 0.03 0.03 0.04 0.04 0.03 0.03 0.03 0.04 0.03
0.10 0.10 0.11 0.12 0.12 0.13 0.11 0.10 0.11 0.13 0.15 0.15 0.13 0.13 0.14 0.13 0.11 0.08 0.06 0.05 0.04 0.04 0.04 0.03 0.04 0.04 0.05 0.05 0.06 0.05 0.05 0.05 0.04 0.03 0.03 0.02 0.02 0.02 0.03 0.04 0.05 0.05 0.04
0.08 0.08 0.09 0.09 0.09 0.08 0.08 0.08 0.09 0.10 0.11 0.11 0.10 0.10 0.10 0.11 0.11 0.09 0.06 0.06 0.04 0.03 0.03 0.03 0.04 0.05 0.05 0.05 0.04 0.04 0.04 0.04 0.04 0.04 0.04 0.04 0.03 0.03 0.02 0.03 0.04 0.04 0.04
0.08 0.08 0.08 0.09 0.10 0.11 0.12 0.10 0.09 0.09 0.10 0.09 0.09 0.10 0.09 0.10 0.11 0.10 0.08 0.06 0.05 0.05 0.04 0.03 0.03 0.03 0.02 0.02 0.02 0.02 0.02 0.03 0.03 0.02 0.02 0.02 0.02 0.03 0.03 0.03 0.04 0.04 0.04
0.08 0.10 0.10 0.10 0.09 0.09 0.10 0.11 0.10 0.09 0.09 0.09 0.11 0.11 0.09 0.10 0.09 0.09 0.07 0.06 0.06 0.06 0.06 0.04 0.03 0.03 0.02 0.02 0.02 0.02 0.02 0.02 0.02 0.01 0.01 0.02 0.02 0.02 0.02 0.02 0.02 0.03 0.03
0.06 0.07 0.07 0.07 0.07 0.08 0.11 0.09 0.09 0.08 0.09 0.09 0.10 0.10 0.09 0.08 0.09 0.09 0.07 0.07 0.06 0.05 0.05 0.04 0.03 0.03 0.02 0.02 0.02 0.02 0.02 0.02 0.02 0.02 0.02 0.01 0.01 0.01 0.01 0.02 0.02 0.02 0.02
0.06 0.05 0.05 0.06 0.07 0.07 0.10 0.10 0.09 0.08 0.08 0.08 0.07 0.07 0.08 0.07 0.07 0.07 0.06 0.06 0.05 0.05 0.04 0.03 0.02 0.02 0.01 0.01 0.01 0.01 0.01 0.01 0.01 0.01 0.00 0.00 0.00 0.00 0.00 0.01 0.01 0.01 0.01
MSLP
1017.78 1017.94 1018.01 1018.04 1018.08 1018.18 1018.35 1018.61 1018.92 1019.26 1019.60 1019.89 1020.13 1020.31 1020.45 1020.55 1020.66 1020.77 1020.90 1021.05 1021.22 1021.39 1021.54 1021.68 1021.81 1021.91 1022.01 1022.10 1022.19 1022.29 1022.39 1022.50 1022.62 1022.75 1022.89 1023.03 1023.17 1023.32 1023.45 1023.56 1023.65 1023.70 1023.73
1017.74 1017.91 1017.99 1018.04 1018.08 1018.18 1018.36 1018.63 1018.96 1019.34 1019.72 1020.07 1020.36 1020.58 1020.74 1020.84 1020.91 1020.97 1021.04 1021.14 1021.25 1021.39 1021.54 1021.70 1021.85 1021.99 1022.11 1022.21 1022.30 1022.38 1022.45 1022.53 1022.62 1022.73 1022.86 1023.01 1023.17 1023.33 1023.49 1023.62 1023.71 1023.77 1023.80
1017.59 1017.78 1017.90 1017.97 1018.06 1018.19 1018.39 1018.68 1019.04 1019.44 1019.86 1020.24 1020.57 1020.81 1020.98 1021.07 1021.10 1021.11 1021.12 1021.14 1021.20 1021.31 1021.44 1021.61 1021.78 1021.95 1022.11 1022.24 1022.34 1022.41 1022.47 1022.53 1022.60 1022.69 1022.81 1022.96 1023.13 1023.30 1023.47 1023.61 1023.71 1023.78 1023.82
1017.32 1017.55 1017.72 1017.86 1018.01 1018.19 1018.44 1018.75 1019.13 1019.55 1019.98 1020.38 1020.72 1020.98 1021.15 1021.22 1021.23 1021.18 1021.13 1021.09 1021.10 1021.15 1021.26 1021.42 1021.62 1021.82 1022.01 1022.17 1022.29 1022.38 1022.45 1022.50 1022.55 1022.63 1022.74 1022.88 1023.05 1023.22 1023.39 1023.53 1023.65 1023.72 1023.76
1016.98 1017.25 1017.49 1017.71 1017.94 1018.19 1018.48 1018.82 1019.21 1019.63 1020.06 1020.46 1020.80 1021.06 1021.23 1021.30 1021.29 1021.21 1021.12 1021.03 1020.97 1020.98 1021.06 1021.20 1021.38 1021.60 1021.81 1022.00 1022.16 1022.27 1022.36 1022.42 1022.48 1022.55 1022.65 1022.78 1022.93 1023.09 1023.25 1023.39 1023.50 1023.57 1023.61
1016.61 1016.92 1017.23 1017.53 1017.84 1018.16 1018.50 1018.87 1019.26 1019.66 1020.07 1020.45 1020.79 1021.06 1021.24 1021.32 1021.31 1021.23 1021.11 1020.99 1020.89 1020.84 1020.87 1020.97 1021.13 1021.33 1021.55 1021.75 1021.93 1022.08 1022.18 1022.27 1022.34 1022.42 1022.52 1022.64 1022.78 1022.92 1023.05 1023.17 1023.26 1023.33 1023.37
1016.25 1016.58 1016.95 1017.33 1017.72 1018.10 1018.48 1018.86 1019.24 1019.62 1020.00 1020.37 1020.70 1020.98 1021.19 1021.31 1021.33 1021.28 1021.16 1021.02 1020.88 1020.79 1020.75 1020.78 1020.89 1021.05 1021.24 1021.43 1021.62 1021.78 1021.91 1022.03 1022.13 1022.23 1022.33 1022.45 1022.57 1022.69 1022.80 1022.89 1022.96 1023.01 1023.04
1015.94 1016.28 1016.68 1017.12 1017.56 1017.99 1018.40 1018.78 1019.14 1019.50 1019.85 1020.20 1020.54 1020.85 1021.10 1021.28 1021.37 1021.36 1021.28 1021.14 1020.97 1020.82 1020.71 1020.66 1020.68 1020.77 1020.90 1021.06 1021.23 1021.39 1021.55 1021.69 1021.82 1021.95 1022.08 1022.20 1022.32 1022.42 1022.51 1022.57 1022.61 1022.64 1022.66
1015.71 1016.04 1016.46 1016.92 1017.39 1017.84 1018.26 1018.63 1018.97 1019.30 1019.63 1019.97 1020.33 1020.67 1020.98 1021.24 1021.40 1021.47 1021.43 1021.31 1021.13 1020.93 1020.74 1020.60 1020.51 1020.50 1020.55 1020.64 1020.78 1020.93 1021.10 1021.26 1021.43 1021.60 1021.75 1021.90 1022.03 1022.13 1022.20 1022.24 1022.26 1022.26 1022.26
1015.54 1015.85 1016.26 1016.73 1017.20 1017.66 1018.07 1018.42 1018.74 1019.04 1019.35 1019.69 1020.06 1020.45 1020.83 1021.16 1021.41 1021.55 1021.57 1021.47 1021.29 1021.05 1020.79 1020.56 1020.37 1020.25 1020.20 1020.22 1020.30 1020.43 1020.59 1020.78 1020.98 1021.19 1021.39 1021.57 1021.72 1021.83 1021.90 1021.93 1021.93 1021.92 1021.91
1015.41 1015.69 1016.08 1016.53 1016.99 1017.43 1017.82 1018.16 1018.45 1018.73 1019.03 1019.37 1019.76 1020.18 1020.61 1021.01 1021.33 1021.54 1021.61 1021.55 1021.38 1021.12 1020.81 1020.50 1020.23 1020.01 1019.88 1019.82 1019.85 1019.94 1020.09 1020.29 1020.52 1020.77 1021.01 1021.23 1021.42 1021.55 1021.64 1021.68 1021.68 1021.66 1021.63
1015.26 1015.52 1015.88 1016.30 1016.74 1017.16 1017.53 1017.84 1018.11 1018.38 1018.67 1019.00 1019.40 1019.84 1020.30 1020.74 1021.12 1021.38 1021.50 1021.48 1021.32 1021.07 1020.75 1020.40 1020.08 1019.80 1019.61 1019.49 1019.47 1019.53 1019.67 1019.87 1020.12 1020.39 1020.67 1020.94 1021.17 1021.34 1021.46 1021.52 1021.53 1021.51 1021.48
1015.03 1015.27 1015.61 1016.00 1016.42 1016.81 1017.16 1017.46 1017.72 1017.98 1018.26 1018.59 1018.98 1019.42 1019.89 1020.34 1020.74 1021.03 1021.19 1021.21 1021.09 1020.87 1020.57 1020.25 1019.92 1019.64 1019.42 1019.28 1019.22 1019.26 1019.37 1019.57 1019.82 1020.11 1020.42 1020.72 1020.99 1021.21 1021.37 1021.46 1021.49 1021.49 1021.46
1014.67 1014.90 1015.23 1015.61 1016.00 1016.38 1016.72 1017.02 1017.28 1017.54 1017.81 1018.13 1018.51 1018.93 1019.38 1019.82 1020.21 1020.51 1020.69 1020.75 1020.70 1020.54 1020.32 1020.06 1019.79 1019.55 1019.35 1019.22 1019.16 1019.18 1019.27 1019.44 1019.69 1019.98 1020.30 1020.62 1020.93 1021.19 1021.39 1021.51 1021.58 1021.59 1021.58
1014.16 1014.40 1014.72 1015.09 1015.48 1015.86 1016.21 1016.51 1016.79 1017.06 1017.34 1017.66 1018.01 1018.41 1018.82 1019.22 1019.58 1019.87 1020.08 1020.18 1020.20 1020.14 1020.03 1019.88 1019.72 1019.57 1019.44 1019.35 1019.31 1019.32 1019.40 1019.54 1019.75 1020.02 1020.33 1020.66 1020.99 1021.27 1021.51 1021.68 1021.77 1021.81 1021.82
1013.54 1013.78 1014.10 1014.47 1014.86 1015.25 1015.62 1015.96 1016.27 1016.57 1016.87 1017.19 1017.53 1017.90 1018.27 1018.63 1018.96 1019.23 1019.45 1019.61 1019.70 1019.76 1019.78 1019.78 1019.76 1019.74 1019.71 1019.69 1019.68 1019.70 1019.75 1019.86 1020.02 1020.25 1020.53 1020.84 1021.17 1021.47 1021.73 1021.93 1022.05 1022.12 1022.14
1012.87 1013.10 1013.41 1013.78 1014.18 1014.59 1014.99 1015.38 1015.74 1016.09 1016.43 1016.78 1017.13 1017.48 1017.82 1018.14 1018.44 1018.71 1018.94 1019.14 1019.33 1019.50 1019.66 1019.81 1019.95 1020.07 1020.16 1020.22 1020.26 1020.28 1020.32 1020.38 1020.49 1020.66 1020.89 1021.16 1021.46 1021.76 1022.03 1022.24 1022.39 1022.47 1022.50
1012.22 1012.45 1012.75 1013.11 1013.51 1013.94 1014.38 1014.81 1015.24 1015.65 1016.06 1016.45 1016.83 1017.19 1017.53 1017.84 1018.12 1018.39 1018.64 1018.89 1019.15 1019.43 1019.73 1020.03 1020.31 1020.56 1020.76 1020.90 1020.98 1021.02 1021.03 1021.05 1021.10 1021.20 1021.37 1021.59 1021.85 1022.12 1022.38 1022.59 1022.74 1022.82 1022.85
1011.72 1011.91 1012.18 1012.53 1012.93 1013.37 1013.83 1014.32 1014.81 1015.30 1015.78 1016.24 1016.67 1017.08 1017.44 1017.77 1018.06 1018.34 1018.61 1018.91 1019.24 1019.60 1020.00 1020.41 1020.81 1021.16 1021.45 1021.66 1021.78 1021.82 1021.82 1021.80 1021.79 1021.83 1021.93 1022.10 1022.30 1022.53 1022.75 1022.94 1023.07 1023.14 1023.15
1011.44 1011.58 1011.82 1012.13 1012.50 1012.94 1013.42 1013.94 1014.49 1015.05 1015.61 1016.16 1016.67 1017.14 1017.56 1017.93 1018.26 1018.56 1018.87 1019.20 1019.58 1019.99 1020.45 1020.93 1021.40 1021.82 1022.17 1022.42 1022.57 1022.63 1022.61 1022.56 1022.51 1022.50 1022.54 1022.64 1022.79 1022.96 1023.14 1023.28 1023.38 1023.41 1023.38
1011.43 1011.53 1011.72 1011.98 1012.31 1012.72 1013.20 1013.74 1014.32 1014.94 1015.58 1016.21 1016.81 1017.37 1017.87 1018.31 1018.69 1019.04 1019.38 1019.73 1020.13 1020.57 1021.04 1021.55 1022.04 1022.49 1022.86 1023.13 1023.29 1023.36 1023.34 1023.28 1023.20 1023.15 1023.15 1023.20 1023.29 1023.40 1023.51 1023.60 1023.64 1023.62 1023.54
1011.74 1011.79 1011.92 1012.13 1012.41 1012.77 1013.22 1013.74 1014.34 1015.00 1015.70 1016.40 1017.10 1017.74 1018.33 1018.85 1019.30 1019.69 1020.07 1020.43 1020.83 1021.25 1021.71 1022.19 1022.66 1023.09 1023.46 1023.73 1023.90 1023.97 1023.96 1023.90 1023.82 1023.75 1023.72 1023.73 1023.77 1023.82 1023.87 1023.89 1023.86 1023.77 1023.63
1012.34 1012.36 1012.44 1012.59 1012.81 1013.11 1013.51 1014.00 1014.58 1015.25 1015.98 1016.74 1017.51 1018.24 1018.91 1019.50 1020.02 1020.46 1020.86 1021.23 1021.60 1021.98 1022.39 1022.81 1023.23 1023.61 1023.94 1024.19 1024.36 1024.43 1024.44 1024.40 1024.34 1024.28 1024.23 1024.21 1024.21 1024.21 1024.19 1024.14 1024.04 1023.88 1023.67
1013.20 1013.21 1013.26 1013.36 1013.53 1013.76 1014.09 1014.53 1015.07 1015.72 1016.45 1017.24 1018.05 1018.84 1019.57 1020.23 1020.80 1021.28 1021.68 1022.04 1022.38 1022.71 1023.04 1023.38 1023.72 1024.03 1024.31 1024.53 1024.68 1024.77 1024.79 1024.78 1024.74 1024.70 1024.66 1024.63 1024.60 1024.56 1024.48 1024.37 1024.20 1023.98 1023.71
1014.24 1014.27 1014.32 1014.40 1014.51 1014.70 1014.96 1015.33 1015.82 1016.42 1017.13 1017.91 1018.73 1019.54 1020.31 1021.00 1021.60 1022.09 1022.50 1022.83 1023.12 1023.38 1023.63 1023.89 1024.13 1024.37 1024.58 1024.76 1024.90 1024.99 1025.04 1025.06 1025.05 1025.04 1025.02 1024.98 1024.94 1024.86 1024.74 1024.58 1024.35 1024.08 1023.76
1015.38 1015.46 1015.54 1015.62 1015.72 1015.86 1016.07 1016.38 1016.81 1017.35 1018.01 1018.75 1019.53 1020.33 1021.10 1021.79 1022.39 1022.88 1023.27 1023.57 1023.81 1024.00 1024.17 1024.34 1024.50 1024.66 1024.81 1024.95 1025.06 1025.15 1025.22 1025.26 1025.29 1025.30 1025.29 1025.27 1025.21 1025.11 1024.97 1024.76 1024.50 1024.19 1023.84
Thickness
5747 5746 5745 5743 5742 5741 5740 5739 5739 5738 5737 5735 5734 5732 5730 5729 5728 5727 5725 5723 5722 5721 5720 5719 5718 5717 5716 5715 5714 5713 5713 5712 5711 5710 5709 5708 5708 5707 5706 5705 5704 5703 5702
5746 5745 5744 5743 5742 5741 5739 5738 5738 5737 5736 5735 5734 5733 5730 5729 5728 5726 5724 5723 5721 5720 5720 5719 5717 5716 5715 5714 5713 5712 5712 5711 5710 5709 5708 5707 5706 5705 5704 5703 5703 5702 5701
5746 5745 5744 5743 5743 5742 5740 5739 5738 5737 5736 5735 5734 5732 5730 5729 5728 5726 5724 5723 5721 5720 5720 5718 5717 5716 5715 5714 5713 5712 5711 5710 5709 5708 5707 5706 5705 5704 5703 5702 5701 5700 5700
5747 5746 5745 5743 5743 5741 5740 5739 5738 5736 5734 5733 5732 5732 5731 5729 5728 5726 5725 5723 5722 5721 5720 5719 5718 5717 5715 5714 5713 5712 5711 5710 5709 5708 5706 5705 5704 5703 5702 5701 5700 5699 5698
5747 5746 5745 5744 5742 5741 5740 5740 5738 5736 5733 5732 5732 5732 5731 5730 5729 5727 5725 5724 5723 5722 5721 5720 5719 5717 5716 5715 5714 5713 5711 5710 5709 5707 5706 5705 5703 5702 5701 5700 5699 5698 5697
5746 5745 5744 5743 5742 5741 5739 5739 5737 5736 5734 5733 5733 5732 5731 5730 5730 5728 5727 5725 5724 5723 5722 5721 5720 5718 5717 5716 5715 5713 5712 5711 5709 5708 5706 5705 5703 5702 5701 5700 5699 5697 5696
5745 5745 5744 5743 5742 5740 5739 5738 5737 5734 5732 5732 5728 5726 5728 5730 5729 5729 5728 5727 5726 5725 5723 5722 5721 5719 5718 5717 5716 5714 5713 5711 5710 5708 5707 5705 5704 5702 5701 5700 5699 5697 5696
5744 5744 5743 5742 5741 5740 5738 5737 5736 5733 5732 5732 5727 5720 5717 5719 5726 5730 5729 5728 5728 5726 5725 5723 5722 5720 5719 5718 5717 5716 5714 5713 5711 5709 5708 5706 5705 5703 5702 5700 5699 5698 5697
5744 5744 5743 5741 5740 5739 5737 5736 5736 5733 5729 5730 5731 5724 5715 5711 5717 5725 5728 5729 5728 5727 5726 5725 5723 5722 5720 5719 5718 5717 5715 5714 5712 5710 5708 5707 5705 5704 5702 5701 5699 5698 5697
5743 5743 5742 5741 5740 5739 5737 5737 5737 5735 5732 5728 5729 5730 5728 5725 5717 5716 5723 5727 5728 5728 5727 5726 5725 5723 5722 5720 5718 5718 5716 5714 5712 5710 5708 5707 5705 5703 5702 5700 5699 5698 5696
5742 5742 5741 5740 5739 5738 5737 5737 5736 5735 5733 5730 5728 5728 5727 5726 5724 5718 5715 5720 5724 5727 5728 5727 5725 5724 5723 5721 5719 5718 5717 5714 5712 5710 5708 5706 5704 5703 5701 5699 5698 5697 5695
5741 5741 5741 5740 5739 5738 5737 5736 5735 5734 5733 5731 5730 5729 5726 5724 5722 5719 5715 5716 5717 5723 5726 5726 5725 5724 5723 5721 5720 5718 5716 5714 5712 5709 5707 5705 5703 5701 5699 5698 5696 5695 5693
5739 5740 5741 5739 5739 5738 5737 5736 5734 5733 5732 5731 5729 5728 5727 5726 5726 5723 5718 5715 5715 5719 5722 5724 5724 5723 5722 5721 5719 5717 5715 5713 5710 5708 5705 5702 5700 5698 5697 5695 5693 5692 5690
5740 5740 5740 5739 5738 5737 5736 5735 5733 5732 5731 5730 5729 5727 5726 5726 5726 5724 5720 5716 5711 5711 5714 5716 5720 5720 5719 5718 5716 5715 5712 5710 5707 5704 5702 5699 5697 5695 5693 5691 5689 5687 5686
5741 5740 5739 5738 5737 5736 5735 5733 5731 5730 5729 5728 5726 5725 5724 5724 5724 5723 5721 5719 5711 5704 5703 5708 5712 5715 5715 5713 5712 5710 5708 5705 5703 5700 5697 5694 5692 5689 5687 5685 5683 5681 5679
5740 5739 5737 5736 5735 5734 5733 5731 5729 5728 5726 5724 5723 5721 5720 5720 5720 5719 5718 5716 5714 5707 5701 5703 5705 5707 5708 5707 5705 5703 5701 5699 5696 5694 5691 5688 5685 5683 5680 5678 5676 5674 5672
5738 5736 5735 5734 5732 5730 5729 5728 5726 5725 5722 5720 5719 5718 5716 5716 5714 5714 5713 5711 5709 5706 5698 5697 5699 5699 5699 5698 5696 5694 5692 5690 5687 5685 5683 5680 5678 5675 5673 5670 5668 5666 5663
5735 5734 5733 5731 5729 5727 5726 5724 5722 5721 5718 5716 5714 5713 5711 5711 5709 5708 5707 5705 5703 5701 5696 5690 5689 5688 5688 5687 5686 5684 5682 5679 5677 5675 5673 5670 5668 5666 5663 5661 5658 5656 5653
5732 5730 5729 5727 5725 5724 5722 5721 5719 5716 5713 5711 5709 5707 5705 5705 5702 5701 5700 5698 5696 5695 5691 5685 5679 5678 5677 5676 5674 5672 5670 5668 5666 5664 5662 5659 5657 5655 5652 5649 5647 5644 5642
5728 5726 5724 5723 5721 5719 5718 5716 5713 5710 5707 5704 5702 5700 5699 5698 5695 5694 5692 5690 5688 5684 5680 5675 5670 5667 5665 5664 5662 5658 5655 5654 5652 5650 5649 5647 5645 5642 5639 5637 5634 5632 5629
5723 5721 5719 5717 5716 5714 5712 5710 5706 5703 5700 5696 5694 5692 5691 5690 5689 5687 5684 5681 5678 5674 5669 5664 5659 5655 5652 5649 5646 5645 5642 5640 5638 5636 5634 5633 5631 5629 5626 5623 5621 5618 5616
5716 5714 5712 5710 5708 5707 5704 5702 5700 5695 5692 5689 5686 5683 5681 5680 5679 5677 5674 5672 5669 5664 5659 5654 5648 5644 5639 5636 5634 5634 5630 5627 5623 5622 5620 5617 5617 5614 5612 5609 5607 5604 5602
5708 5705 5703 5702 5700 5697 5696 5694 5691 5688 5683 5680 5677 5675 5672 5669 5667 5665 5661 5659 5656 5652 5650 5644 5638 5633 5629 5626 5624 5621 5617 5613 5609 5608 5607 5602 5601 5598 5597 5594 5592 5590 5587
5700 5697 5694 5692 5690 5688 5687 5684 5681 5678 5673 5670 5667 5664 5661 5657 5656 5653 5649 5645 5641 5638 5636 5632 5628 5623 5620 5616 5614 5610 5606 5601 5598 5595 5594 5588 5585 5582 5581 5579 5577 5575 5572
5691 5688 5685 5683 5681 5678 5676 5675 5672 5667 5663 5658 5656 5653 5650 5647 5644 5641 5637 5632 5628 5624 5622 5619 5616 5612 5608 5605 5602 5598 5593 5588 5582 5580 5578 5574 5569 5566 5564 5563 5561 5559 5556
5683 5679 5676 5673 5671 5668 5666 5664 5662 5658 5652 5647 5644 5641 5638 5635 5632 5629 5625 5620 5615 5610 5608 5604 5601 5598 5595 5592 5589 5585 5580 5575 5569 5565 5563 5559 5554 5550 5547 5546 5545 5542 5540